Temp
-18 -18 -18 -18 -19 -19 -19 -19 -19 -19 -19 -19 -20 -20 -20 -20 -20 -20 -20 -20 -20 -20 -20 -20 -20 -20 -21 -21 -21 -21 -21 -21 -21 -21 -21 -21 -21 -21 -21 -21 -21 -21
-18 -18 -18 -18 -19 -19 -19 -20 -20 -20 -20 -19 -20 -20 -20 -20 -20 -20 -20 -20 -20 -20 -20 -20 -20 -20 -20 -21 -21 -21 -21 -21 -21 -21 -21 -21 -21 -21 -21 -21 -21 -21
-18 -18 -18 -18 -19 -19 -19 -20 -20 -20 -20 -20 -20 -20 -21 -21 -21 -21 -21 -21 -21 -21 -21 -20 -20 -20 -20 -20 -20 -21 -21 -21 -21 -21 -21 -21 -21 -21 -21 -21 -21 -21
-18 -18 -18 -18 -19 -19 -19 -20 -20 -20 -20 -20 -20 -20 -21 -21 -21 -21 -21 -21 -21 -21 -21 -21 -21 -21 -20 -20 -20 -20 -21 -21 -21 -21 -21 -21 -21 -21 -21 -21 -21 -21
-18 -18 -18 -19 -19 -19 -19 -20 -20 -20 -20 -20 -20 -20 -21 -21 -21 -21 -21 -21 -21 -21 -21 -21 -21 -21 -21 -21 -20 -20 -21 -20 -20 -20 -20 -21 -21 -21 -21 -21 -21 -21
-19 -19 -19 -19 -19 -19 -19 -20 -20 -20 -20 -20 -20 -20 -21 -21 -21 -21 -21 -21 -21 -21 -21 -21 -21 -21 -21 -21 -21 -21 -21 -21 -21 -21 -21 -21 -21 -21 -21 -21 -21 -21
-19 -19 -19 -19 -19 -19 -20 -20 -20 -20 -20 -20 -20 -20 -21 -21 -21 -21 -21 -21 -21 -21 -21 -21 -21 -21 -21 -21 -21 -21 -21 -21 -21 -21 -21 -21 -21 -21 -21 -21 -21 -21
-19 -19 -19 -19 -20 -20 -20 -20 -20 -20 -21 -21 -20 -20 -20 -21 -21 -21 -21 -21 -21 -21 -21 -21 -21 -21 -21 -21 -21 -21 -21 -21 -21 -21 -21 -21 -21 -21 -21 -21 -21 -21
-19 -19 -19 -19 -20 -20 -20 -20 -20 -21 -21 -21 -21 -21 -20 -21 -21 -21 -21 -21 -21 -21 -21 -21 -21 -21 -21 -21 -21 -21 -21 -21 -21 -21 -21 -21 -21 -21 -21 -21 -21 -21
-19 -19 -19 -20 -20 -20 -21 -21 -21 -21 -21 -21 -21 -21 -21 -21 -21 -21 -21 -21 -21 -21 -21 -22 -22 -22 -22 -21 -21 -21 -21 -21 -21 -21 -21 -21 -22 -21 -21 -21 -21 -21
-19 -19 -20 -20 -20 -20 -21 -21 -21 -21 -21 -21 -21 -21 -21 -21 -21 -21 -21 -21 -21 -21 -22 -22 -22 -22 -22 -22 -22 -21 -21 -21 -21 -22 -22 -22 -22 -22 -22 -22 -22 -22
-20 -20 -20 -20 -20 -21 -21 -21 -21 -21 -21 -21 -21 -21 -21 -21 -21 -21 -21 -21 -21 -22 -22 -22 -22 -22 -22 -22 -22 -22 -22 -22 -22 -22 -22 -22 -22 -22 -22 -22 -22 -22
-20 -20 -20 -20 -21 -21 -21 -21 -21 -21 -21 -21 -21 -21 -22 -22 -22 -22 -22 -22 -22 -22 -22 -22 -22 -22 -22 -22 -22 -22 -22 -22 -22 -23 -23 -23 -23 -22 -22 -22 -22 -22
-20 -21 -21 -21 -21 -21 -21 -21 -22 -22 -22 -22 -22 -22 -22 -22 -22 -22 -22 -22 -22 -22 -22 -22 -22 -22 -22 -22 -23 -23 -23 -23 -23 -23 -23 -23 -23 -23 -23 -23 -23 -23
-21 -21 -21 -21 -21 -21 -22 -22 -22 -22 -22 -22 -22 -22 -22 -22 -22 -22 -22 -23 -23 -23 -23 -23 -23 -23 -23 -23 -23 -23 -23 -23 -23 -23 -23 -23 -23 -23 -23 -23 -23 -23
-21 -21 -21 -21 -21 -22 -22 -22 -22 -22 -22 -22 -22 -22 -22 -22 -22 -22 -23 -23 -23 -23 -23 -23 -23 -23 -23 -23 -23 -23 -23 -23 -23 -23 -23 -23 -23 -23 -23 -23 -23 -23
-21 -21 -21 -22 -22 -22 -22 -22 -22 -22 -22 -22 -22 -22 -22 -22 -22 -23 -23 -23 -23 -23 -23 -23 -23 -23 -24 -23 -23 -23 -23 -23 -23 -23 -23 -23 -23 -23 -24 -24 -24 -24
-22 -22 -22 -22 -22 -22 -22 -22 -22 -22 -22 -22 -22 -22 -22 -22 -23 -23 -23 -23 -23 -23 -23 -23 -23 -24 -24 -23 -23 -23 -23 -23 -23 -23 -23 -23 -23 -23 -24 -24 -24 -24
-22 -22 -22 -22 -22 -22 -22 -22 -23 -23 -22 -22 -22 -22 -23 -23 -23 -23 -23 -23 -23 -23 -23 -23 -24 -23 -23 -23 -23 -23 -23 -23 -23 -23 -23 -23 -23 -24 -24 -24 -24 -24
-22 -22 -22 -22 -22 -22 -22 -23 -23 -23 -23 -23 -23 -23 -23 -23 -23 -23 -23 -23 -23 -23 -23 -23 -24 -24 -23 -23 -23 -23 -23 -23 -23 -23 -23 -23 -23 -24 -24 -24 -24 -24
-22 -23 -23 -23 -22 -22 -23 -23 -23 -23 -23 -23 -23 -23 -23 -23 -23 -23 -23 -23 -23 -23 -23 -23 -24 -24 -24 -24 -24 -24 -24 -24 -24 -24 -24 -24 -24 -24 -24 -24 -24 -24
-23 -23 -23 -23 -23 -23 -23 -23 -23 -23 -23 -23 -23 -23 -23 -23 -23 -23 -23 -23 -23 -23 -23 -23 -24 -24 -24 -24 -24 -24 -24 -24 -24 -24 -24 -24 -24 -24 -24 -24 -24 -24
-23 -23 -23 -23 -23 -23 -23 -23 -23 -23 -23 -23 -23 -23 -23 -23 -23 -23 -23 -23 -23 -23 -23 -24 -24 -24 -24 -24 -24 -24 -24 -24 -24 -24 -24 -24 -24 -24 -24 -24 -24 -24
-23 -23 -23 -23 -23 -23 -23 -24 -23 -23 -23 -23 -24 -24 -24 -24 -23 -23 -23 -23 -23 -23 -24 -24 -24 -24 -24 -24 -24 -24 -24 -24 -24 -24 -24 -24 -24 -24 -24 -25 -25 -25
-23 -23 -23 -23 -23 -23 -24 -24 -23 -23 -23 -24 -24 -24 -24 -24 -24 -24 -24 -24 -24 -24 -24 -24 -24 -24 -24 -24 -24 -24 -24 -24 -24 -24 -24 -24 -24 -25 -25 -25 -25 -25
-24 -23 -23 -23 -24 -24 -24 -24 -24 -23 -24 -24 -24 -24 -24 -24 -24 -24 -24 -24 -24 -24 -24 -24 -24 -24 -24 -24 -24 -24 -24 -24 -24 -24 -24 -25 -25 -25 -25 -25 -25 -25
Height
5640 5637 5635 5633 5631 5629 5627 5625 5624 5622 5620 5618 5617 5616 5615 5614 5614 5613 5613 5613 5613 5612 5612 5612 5612 5612 5613 5614 5615 5616 5616 5617 5617 5618 5618 5618 5618 5619 5619 5619 5620 5620
5636 5633 5631 5629 5627 5625 5623 5621 5620 5618 5616 5614 5612 5611 5610 5609 5608 5608 5607 5607 5607 5607 5606 5606 5606 5606 5606 5607 5608 5609 5610 5611 5611 5612 5612 5612 5612 5612 5613 5613 5613 5614
5632 5629 5627 5624 5622 5620 5618 5617 5615 5613 5612 5610 5607 5606 5604 5603 5603 5602 5602 5601 5601 5601 5600 5600 5600 5601 5601 5601 5602 5602 5603 5604 5605 5605 5606 5606 5606 5606 5607 5607 5607 5607
5627 5625 5622 5620 5617 5615 5613 5612 5610 5609 5607 5605 5603 5601 5599 5598 5597 5596 5596 5595 5595 5594 5594 5594 5595 5595 5595 5596 5596 5596 5597 5597 5598 5598 5599 5599 5599 5600 5600 5600 5600 5601
5623 5620 5617 5615 5612 5610 5608 5607 5605 5603 5602 5600 5598 5595 5594 5593 5592 5591 5590 5589 5588 5588 5587 5588 5588 5588 5589 5589 5590 5590 5590 5591 5592 5592 5592 5592 5593 5593 5593 5593 5594 5595
5618 5615 5612 5609 5607 5605 5603 5601 5600 5598 5596 5594 5592 5590 5588 5587 5586 5585 5584 5583 5582 5582 5581 5581 5581 5582 5582 5583 5583 5583 5583 5584 5584 5585 5585 5586 5586 5587 5587 5587 5588 5588
5613 5610 5607 5604 5602 5599 5598 5596 5594 5592 5591 5589 5587 5585 5583 5581 5580 5579 5578 5577 5576 5575 5575 5574 5574 5574 5575 5575 5576 5577 5577 5577 5577 5578 5578 5579 5580 5580 5581 5581 5581 5581
5608 5605 5602 5599 5596 5594 5592 5589 5588 5586 5584 5583 5581 5579 5577 5575 5574 5573 5571 5570 5569 5568 5568 5568 5568 5567 5567 5568 5569 5569 5570 5570 5571 5571 5572 5572 5573 5573 5574 5574 5574 5575
5602 5600 5596 5594 5591 5588 5586 5583 5581 5579 5578 5576 5575 5573 5571 5569 5568 5566 5565 5563 5562 5561 5561 5561 5561 5561 5561 5561 5561 5562 5562 5563 5564 5564 5565 5565 5566 5566 5566 5567 5567 5567
5597 5594 5591 5588 5585 5582 5580 5577 5575 5573 5571 5570 5568 5566 5565 5563 5561 5559 5558 5557 5555 5554 5554 5553 5553 5553 5554 5554 5554 5554 5555 5556 5556 5557 5558 5558 5559 5559 5559 5559 5559 5559
5591 5588 5585 5582 5579 5576 5573 5571 5569 5567 5565 5563 5562 5560 5558 5556 5554 5552 5551 5550 5548 5547 5547 5546 5546 5546 5546 5546 5547 5547 5548 5548 5549 5550 5550 5551 5551 5552 5552 5552 5552 5552
5585 5582 5579 5576 5573 5570 5567 5565 5563 5561 5559 5557 5555 5553 5551 5549 5547 5545 5544 5543 5542 5541 5540 5539 5539 5539 5539 5539 5540 5540 5540 5541 5542 5542 5543 5544 5544 5545 5545 5546 5546 5546
5578 5575 5572 5570 5567 5564 5561 5559 5557 5555 5553 5551 5549 5547 5545 5543 5541 5539 5537 5536 5535 5534 5533 5533 5532 5532 5532 5532 5532 5533 5533 5534 5534 5535 5536 5537 5537 5538 5539 5539 5539 5539
5571 5568 5566 5563 5561 5558 5555 5553 5551 5548 5546 5544 5542 5540 5538 5536 5534 5532 5530 5529 5528 5527 5527 5526 5526 5525 5525 5525 5525 5526 5526 5527 5528 5528 5529 5530 5530 5531 5532 5532 5532 5531
5564 5561 5559 5556 5554 5552 5549 5546 5544 5542 5540 5538 5535 5533 5531 5529 5527 5526 5524 5522 5522 5521 5520 5519 5519 5519 5519 5518 5519 5519 5520 5520 5521 5522 5522 5523 5523 5523 5524 5524 5523 5523
5557 5554 5552 5549 5547 5545 5542 5540 5538 5536 5533 5531 5529 5526 5524 5522 5521 5519 5517 5516 5515 5515 5514 5513 5513 5513 5512 5512 5513 5513 5513 5514 5515 5515 5515 5516 5516 5516 5516 5516 5516 5515
5550 5547 5545 5543 5540 5538 5536 5533 5531 5529 5527 5525 5522 5520 5518 5516 5514 5512 5511 5510 5509 5508 5507 5507 5507 5507 5507 5507 5507 5507 5507 5508 5508 5508 5509 5509 5509 5509 5509 5509 5509 5508
5543 5541 5538 5536 5533 5531 5529 5526 5524 5522 5520 5518 5516 5514 5512 5510 5508 5506 5505 5503 5502 5502 5501 5501 5501 5501 5501 5501 5501 5501 5501 5501 5502 5502 5502 5502 5502 5502 5502 5502 5502 5502
5536 5534 5532 5529 5527 5524 5522 5519 5517 5515 5514 5512 5510 5508 5506 5504 5502 5500 5499 5498 5496 5496 5495 5495 5495 5495 5495 5495 5495 5495 5495 5495 5495 5495 5496 5496 5496 5496 5496 5495 5495 5495
5529 5527 5525 5522 5520 5518 5515 5513 5511 5509 5508 5506 5505 5503 5501 5499 5497 5496 5494 5492 5491 5490 5489 5489 5489 5489 5489 5489 5489 5489 5489 5489 5489 5489 5489 5489 5489 5489 5489 5489 5488 5488
5522 5520 5518 5516 5513 5511 5509 5506 5505 5503 5502 5501 5499 5498 5496 5494 5493 5491 5490 5488 5487 5485 5484 5484 5483 5483 5483 5483 5483 5483 5482 5482 5482 5482 5482 5482 5482 5482 5482 5481 5481 5481
5515 5513 5511 5509 5507 5504 5502 5500 5499 5497 5496 5495 5494 5492 5491 5489 5488 5486 5485 5483 5482 5481 5480 5479 5478 5478 5478 5477 5477 5477 5477 5476 5476 5476 5476 5475 5475 5475 5475 5474 5474 5473
5508 5506 5504 5502 5500 5498 5496 5494 5493 5492 5491 5490 5488 5487 5486 5484 5483 5481 5480 5478 5477 5476 5475 5474 5473 5473 5472 5472 5472 5471 5471 5470 5470 5470 5469 5469 5468 5468 5468 5467 5467 5467
5501 5499 5497 5495 5494 5492 5490 5488 5487 5486 5485 5484 5483 5482 5480 5479 5478 5476 5475 5474 5473 5472 5471 5470 5469 5468 5468 5467 5466 5466 5465 5465 5464 5464 5463 5463 5462 5462 5462 5461 5461 5460
5494 5492 5490 5488 5487 5485 5484 5483 5482 5481 5480 5479 5478 5477 5475 5474 5473 5471 5470 5469 5468 5467 5466 5465 5465 5464 5463 5462 5462 5461 5460 5459 5459 5458 5458 5457 5456 5456 5456 5455 5455 5454
5486 5485 5483 5481 5480 5479 5478 5477 5476 5475 5474 5473 5472 5471 5470 5469 5468 5466 5465 5464 5464 5463 5462 5461 5460 5459 5459 5458 5457 5456 5455 5454 5454 5453 5452 5451 5451 5450 5450 5449 5448 5448
Wind_Speed
46 45 43 41 39 38 38 37 37 36 36 36 37 37 37 38 39 40 41 42 43 44 45 46 47 47 48 48 48 48 48 48 48 48 48 49 50 50 50 49 51 51
46 46 45 44 42 40 40 39 38 38 37 37 37 37 38 38 39 39 41 42 43 43 44 45 46 47 47 47 48 48 48 47 48 49 50 51 51 51 52 52 52 49
47 47 47 46 45 43 42 41 40 39 38 38 38 38 38 39 39 39 40 41 42 43 43 44 43 44 45 45 46 46 46 46 48 50 50 51 51 52 53 52 49 48
48 49 49 48 47 46 44 43 43 41 39 39 39 39 39 39 40 40 40 40 42 43 44 44 43 43 45 46 48 49 49 49 50 50 50 50 50 50 50 50 49 50
50 51 51 51 50 48 47 45 44 42 40 39 39 39 39 39 40 41 42 41 42 43 44 45 45 45 46 46 47 49 50 51 51 52 54 55 55 55 53 51 50 52
53 54 54 53 52 50 49 47 45 44 42 40 39 39 40 40 41 42 43 44 44 44 44 45 45 46 46 46 46 47 48 49 49 49 51 54 56 56 56 55 55 56
54 55 56 55 54 52 50 48 47 45 43 41 39 39 40 40 41 42 43 44 45 46 46 46 45 45 46 46 47 47 48 49 49 49 49 49 50 51 52 54 57 58
55 56 57 57 56 54 51 49 48 45 44 42 40 39 40 40 40 41 42 43 45 46 47 48 47 46 45 45 45 46 48 49 49 49 48 47 47 48 49 50 52 55
56 57 58 58 57 55 52 49 48 46 44 44 42 41 40 41 40 40 40 41 43 45 47 48 49 48 47 46 45 45 46 47 48 49 49 47 47 47 47 48 50 52
58 59 59 59 58 56 52 49 47 46 45 45 44 43 42 42 41 40 40 41 41 43 45 47 49 50 50 49 48 46 46 46 47 48 48 48 48 46 46 48 51 52
59 60 60 60 59 56 53 50 48 46 45 45 45 44 43 42 42 42 41 41 41 41 42 44 46 48 50 51 51 50 49 48 48 48 48 49 49 48 47 47 48 51
61 61 61 60 59 57 53 50 49 47 46 45 45 45 44 43 43 43 42 42 42 41 41 42 43 45 47 49 50 51 51 50 49 48 47 47 47 47 46 46 47 50
62 62 61 60 58 56 54 51 49 47 46 46 46 46 44 43 43 44 44 44 43 42 42 41 42 43 43 45 47 48 49 49 49 49 48 47 47 47 46 46 47 50
63 62 61 59 58 56 53 52 50 47 46 46 47 46 45 44 44 44 45 45 44 44 43 42 43 42 42 42 43 44 44 44 44 45 46 47 48 47 47 47 48 50
64 62 61 58 56 54 53 51 49 47 46 47 48 46 45 45 44 44 45 45 44 43 44 43 43 41 40 40 40 40 41 41 41 42 43 46 47 48 48 49 50 50
64 63 60 57 55 53 52 51 49 47 47 48 47 46 45 45 44 43 43 44 43 42 42 42 41 40 39 38 37 37 38 39 40 41 43 45 47 48 49 51 52 52
65 63 60 56 53 53 52 51 49 47 47 47 46 45 45 44 42 41 41 42 41 41 41 39 38 38 38 38 37 38 39 39 38 38 38 40 43 45 48 50 52 54
64 62 58 54 52 52 52 50 48 47 47 46 45 44 43 41 39 39 39 39 39 39 39 38 38 39 39 39 40 40 41 42 42 42 41 42 44 47 48 50 52 54
63 60 55 52 51 51 51 50 47 46 46 45 43 42 40 37 36 36 36 36 37 37 37 38 38 39 39 40 40 40 41 42 44 46 46 46 48 48 49 50 51 53
61 57 52 50 50 51 50 49 46 45 44 42 41 39 36 35 34 34 34 34 34 34 36 37 38 38 37 37 38 38 39 40 42 44 45 47 48 49 48 49 50 50
57 52 49 49 50 49 49 47 44 43 42 40 38 36 34 34 34 34 33 32 31 32 33 35 37 38 38 38 38 38 38 39 40 41 43 44 45 46 47 47 48 49
52 49 49 49 49 49 47 45 42 41 40 38 37 35 34 34 34 33 33 32 31 30 31 32 34 36 38 39 40 40 40 40 40 41 41 41 42 43 45 46 46 47
49 49 49 50 50 49 46 43 40 39 39 37 36 35 34 34 33 32 32 31 30 29 29 30 31 32 34 36 38 39 40 40 40 39 39 38 38 39 41 42 43 44
49 50 51 51 51 49 44 40 38 38 38 37 36 35 35 34 33 31 30 29 29 29 29 30 30 31 32 32 34 35 36 36 37 37 37 37 37 37 38 39 40 41
51 52 52 52 51 47 41 38 37 37 38 37 36 35 34 33 32 30 29 29 29 29 29 30 30 31 31 32 32 33 33 34 34 35 35 36 36 37 37 38 39 40
53 53 53 52 49 44 38 36 36 37 37 37 35 34 34 33 31 30 29 29 30 30 31 31 31 31 31 32 33 33 34 34 35 36 37 37 38 38 39 40 41 42
Wind_Direction
317 315 313 309 307 305 304 305 305 305 303 300 296 290 287 283 278 273 269 267 264 261 259 258 257 256 257 258 260 261 262 264 265 267 268 269 270 271 272 273 273 275
315 314 312 309 306 304 303 303 304 305 303 300 295 289 286 284 281 277 272 268 265 264 262 261 260 259 259 259 260 261 261 263 264 266 266 266 268 270 271 271 272 275
313 312 311 309 306 303 302 301 302 304 303 300 295 289 284 283 281 279 276 271 267 265 263 262 261 261 262 262 263 264 263 262 263 263 264 265 266 267 268 270 273 274
312 311 310 309 307 304 302 301 301 302 302 300 296 289 283 281 280 278 276 274 270 266 264 263 262 260 259 260 261 262 263 264 264 264 264 265 265 265 267 270 272 273
311 311 310 310 308 305 304 302 300 300 300 299 296 290 284 280 279 277 274 272 270 268 265 264 263 261 259 259 258 259 260 262 264 265 265 265 265 265 266 268 270 270
311 312 311 310 309 307 305 304 301 299 299 298 296 292 286 281 280 279 275 272 269 267 266 264 263 263 262 260 259 258 258 259 262 263 264 265 266 265 266 267 267 267
310 311 312 312 311 309 307 305 303 299 297 297 295 293 288 284 281 280 278 274 270 267 265 264 263 263 263 263 261 260 260 260 261 261 261 263 264 264 266 267 266 267
309 310 311 312 312 310 308 306 304 299 297 297 295 293 291 287 284 282 279 276 272 269 266 264 263 262 262 263 262 262 261 262 263 262 261 262 265 266 265 265 267 269
308 309 310 311 312 311 308 307 304 300 297 297 296 294 292 290 287 283 280 277 274 270 267 265 263 262 261 261 261 261 261 261 262 263 262 263 266 268 267 265 265 268
306 308 309 310 312 311 308 305 303 300 297 297 297 295 294 292 289 285 282 279 276 272 269 267 264 263 261 260 259 259 260 261 261 261 261 262 263 265 267 268 267 267
304 306 308 309 310 311 308 304 302 299 297 297 296 295 294 293 291 288 284 281 278 275 272 270 267 264 262 261 260 259 259 260 261 261 260 260 261 261 264 268 270 270
303 305 307 308 308 310 308 304 301 299 297 296 296 294 293 292 290 289 285 282 280 278 275 273 270 268 265 263 262 262 261 261 261 260 260 261 261 261 262 265 269 271
302 304 306 307 307 309 309 304 301 299 297 296 295 293 292 290 288 287 285 282 280 279 277 275 273 270 267 265 263 263 263 262 261 260 259 259 259 260 261 264 268 272
302 304 306 307 307 307 308 305 301 299 297 296 294 293 291 289 286 284 282 281 279 278 277 276 273 271 269 267 265 264 264 264 264 263 261 260 260 260 261 263 267 271
302 304 306 306 306 306 307 305 300 298 297 295 294 293 291 289 286 283 280 279 278 277 275 274 272 270 268 267 266 265 264 264 263 263 261 260 260 260 260 261 264 268
301 303 305 305 305 306 307 304 299 297 296 295 294 293 292 290 287 283 280 279 278 276 274 272 268 265 265 267 268 268 267 265 264 263 262 261 260 260 260 261 262 264
301 303 304 304 304 305 306 303 298 296 296 294 293 293 291 290 287 283 280 279 278 276 274 269 264 260 260 263 265 266 266 266 265 265 265 263 264 265 264 264 264 265
301 303 304 303 303 304 305 301 296 294 295 294 293 292 290 289 288 284 282 280 278 276 272 266 262 260 259 260 260 260 261 262 262 263 262 261 265 268 267 265 265 266
301 302 302 302 303 304 303 299 295 293 293 293 292 291 290 290 289 288 286 283 280 276 270 264 261 262 262 261 261 261 261 261 262 262 261 261 265 268 268 267 268 268
301 302 301 302 303 303 301 297 293 292 292 291 290 290 290 290 290 288 288 286 283 278 271 263 261 262 263 263 263 263 263 263 263 263 263 263 266 268 268 269 270 270
301 301 301 302 303 301 299 295 291 290 290 290 290 290 289 289 288 287 287 287 286 283 277 269 264 262 263 263 263 263 264 264 265 265 266 267 268 269 270 271 271 271
301 300 301 302 302 300 298 293 289 289 289 289 289 289 289 289 288 288 287 286 286 286 284 279 273 269 267 266 265 264 264 265 266 267 267 268 269 270 271 271 271 271
300 300 301 301 300 299 295 290 287 288 288 289 289 288 289 290 290 290 290 288 287 288 287 286 283 280 277 274 271 269 267 267 267 267 268 269 271 272 272 272 272 272
300 300 299 299 299 297 291 286 286 287 288 289 288 288 289 290 291 292 292 292 291 290 290 288 286 284 283 280 278 275 274 273 273 272 272 273 273 274 274 274 274 273
300 299 299 299 298 293 285 283 285 286 288 289 288 287 288 289 290 292 293 293 293 292 291 290 288 287 285 284 283 281 280 280 280 279 279 278 277 277 276 276 275 274
300 299 298 298 296 288 281 281 284 286 288 288 287 286 286 287 289 290 291 291 291 291 291 290 289 289 288 287 286 285 284 283 283 282 281 281 280 279 278 277 276 275